Regional Weather Roundup
Issued by NWS

Home | Current Version | Previous Version | Text Only | Print | Product List | Glossary On
Versions: 1 2 3 4 5 6 7 8 9 10 11 12 13 14 15 16 17 18 19 20 21 22 23 24 25 26 27
000
ASUS45 KPSR 050110
RWRAZ

ARIZONA HOURLY REGIONAL WEATHER ROUNDUP
NATIONAL WEATHER SERVICE PHOENIX AZ
600 PM MST SUN DEC 04 2016

NOTE: FAIR INDICATES FEW OR NO CLOUDS BELOW 12,000 FEET WITH NO
SIGNIFICANT WEATHER AND/OR OBSTRUCTIONS TO VISIBILITY.

AZZ001>003-036-050200-
NORTHWEST ARIZONA

CITY           SKY/WX    TMP DP  RH WIND       PRES   REMARKS
BULLHEAD CITY  PTCLDY    64  14  14 N14       29.97S
KINGMAN        PTCLDY    49  10  20 CALM      30.02S
$$

AZZ004>008-015-016-018-050200-
NORTH CENTRAL ARIZONA

CITY           SKY/WX    TMP DP  RH WIND       PRES   REMARKS
GRAND CANYON   PTCLDY    29  22  75 CALM      30.11R
PRESCOTT       CLEAR     43  16  33 CALM      30.06S
FLAGSTAFF      PTCLDY    36  13  38 SW3       30.09S
PAYSON         CLEAR     52  10  19 W6        30.08S
PAGE           PTCLDY    40  14  34 CALM      30.05F
$$

AZZ009>014-017-050200-
NORTHEAST ARIZONA

CITY           SKY/WX    TMP DP  RH WIND       PRES   REMARKS
WINSLOW        CLEAR     40  11  30 E5        30.09R
SAINT JOHNS    CLEAR     35  11  36 N6        30.08S WCI  30
WINDOW ROCK    CLEAR     32  20  61 NE3       30.09R
SHOW LOW       CLEAR     34   9  35 CALM      30.11R
$$

AZZ023-050200-
GREATER PHOENIX AREA

CITY           SKY/WX    TMP DP  RH WIND       PRES   REMARKS
PHOENIX        PTCLDY    66  13  12 NW7       29.95R
BUCKEYE        CLEAR     57  27  30 SE5       29.98S
GLENDALE       CLEAR     61  27  27 CALM      29.98
LUKE AFB       CLEAR     61  24  24 SW6       29.95S
DEER VALLEY    CLEAR     62  18  18 CALM      29.96S
SCOTTSDALE     CLEAR     62  19  19 CALM      29.98R
MESA-FALCON    CLEAR    N/A N/A N/A W8        29.94R
MESA-GATEWAY   CLEAR     61  19  20 SW3       29.98R
$$

AZZ027-028-050200-
SOUTHWEST MARICOPA COUNTY AND PINAL COUNTY

CITY           SKY/WX    TMP DP  RH WIND       PRES   REMARKS
CASA GRANDE    NOT AVBL
$$

AZZ503-504-507>509-050200-
SOUTHEAST ARIZONA

CITY           SKY/WX    TMP DP  RH WIND       PRES   REMARKS
TUCSON         CLEAR     59  27  29 N5        30.00S
DAVIS-MONTHAN  CLEAR     56  26  31 N5        29.99R
RYAN FIELD     CLEAR     57  27  30 W7        30.00S
NOGALES        CLEAR     56  24  29 CALM      30.00R
SIERRA VISTA   CLEAR     47  24  41 SW6       30.05R
DOUGLAS        CLEAR     47  28  47 SE7       30.03S
SAFFORD        LGT RAIN  49  22  34 CALM      30.00F
$$

AZZ020-021-025-026-031-050200-
SOUTHWEST ARIZONA

CITY           SKY/WX    TMP DP  RH WIND       PRES   REMARKS
YUMA           CLEAR     64  19  17 S3        29.95F
$$

CAZ031-033-041-043-047-048-061-050200-
SOUTHERN CALIFORNIA

CITY           SKY/WX    TMP DP  RH WIND       PRES   REMARKS
DOWNTOWN L.A.  MOCLDY    63  34  33 W3        29.98S
L.A. AIRPORT   MOCLDY    61  52  72 VRB6      29.99S
SAN DIEGO      PTCLDY    62  52  69 NW3       30.00F
BURBANK        MOCLDY    66  24  20 S6        29.98S
ONTARIO        MOCLDY    65  25  22 W5        29.98S
RIVERSIDE      PTCLDY    68  31  25 CALM      29.98S
PALM SPRINGS   PTCLDY    66  26  22 CALM      29.97F
EL CENTRO NAS  CLEAR     65  23  20 S3        29.96F
IMPERIAL       CLEAR     68  26  20 CALM      29.94F
BLYTHE         CLEAR     64  21  19 S6        29.96F
NEEDLES        PTCLDY    63  15  15 NW6       29.97S
$$

NVZ020-UTZ003-050200-
SOUTHERN NEVADA-UTAH

CITY           SKY/WX    TMP DP  RH WIND       PRES   REMARKS
LAS VEGAS      MOCLDY    56  14  19 CALM      30.00F
SALT LAKE CITY CLOUDY    41  21  44 SE12      29.88F
$$

NMZ009-TXZ055-050200-
NEW MEXICO-WEST TEXAS

CITY           SKY/WX    TMP DP  RH WIND       PRES   REMARKS
ALBUQUERQUE    CLOUDY    43  14  31 CALM      30.07R
EL PASO        PTCLDY    52  29  41 NW5       30.03R
$$


........................KEY........................
SKY/WX - SKY CONDITION/WEATHER
TMP    - TEMPERATURE IN FAHRENHEIT
DP     - DEW POINT IN FAHRENHEIT
RH     - RELATIVE HUMIDITY IN PERCENT
WIND   - DIRECTION AND SPEED IN MILES PER HOUR (MPH)
VRB    - VARIABLE WIND DIRECTION
PRES   - MEAN SEA LEVEL PRESSURE IN INCHES OF MERCURY
         F - FALLING PRESSURE   R - RISING PRESSURE
         S - STEADY PRESSURE
VSB    - VISIBILITY IN MILES
HX     - HEAT INDEX IN FAHRENHEIT
WCI    - WIND CHILL INDEX IN FAHRENHEIT
TC     - TEMPERATURE IN CELSIUS WHICH IS ALSO KNOWN AS
         TEMPERATURE IN CENTIGRADE
AFB    - AIR FORCE BASE
         LUKE AFB IS LUKE AIR FORCE BASE
         DAVIS-MONTHAN IS DAVIS-MONTHAN AIR FORCE BASE
NAS    - NAVAL AIR STATION
         EL CENTRO NAS IS EL CENTRO NAVAL AIR STATION
N/A    - NOT AVAILABLE





USA.gov is the U.S. government's official web portal to all federal, state and local government web resources and services.